DW3798 Weather Reports


Display with metric or nautical units.
time (UTC)temp
F
wind
direction
speed
MPH
gust
MPH
rain 1hr
in
rain 24hr
in
rain mn
in
humidity
%
barometer
mb
20260508190506 68 199 5.0 14.0 0.00 0.00 0.00 45 1011.4
20260508190027 68 256 3.0 14.0 0.00 0.00 0.00 46 1011.5
20260508185508 67 150 5.0 14.0 0.00 0.00 0.00 44 1011.6
20260508185008 67 263 5.0 11.0 0.00 0.00 0.00 45 1011.7
20260508184525 67 257 6.0 11.0 0.00 0.00 0.00 46 1011.7
20260508184008 67 229 6.0 13.0 0.00 0.00 0.00 46 1011.7
20260508183507 67 242 5.0 13.0 0.00 0.00 0.00 50 1011.7
20260508183025 66 229 2.0 8.0 0.00 0.00 0.00 49 1011.8
20260508182509 65 267 3.0 9.0 0.00 0.00 0.00 49 1011.8
20260508182014 65 282 4.0 13.0 0.00 0.00 0.00 47 1011.9
20260508181527 65 228 5.0 13.0 0.00 0.00 0.00 47 1012.0
20260508181018 65 317 1.0 8.0 0.00 0.00 0.00 48 1012.0
20260508180515 65 276 2.0 14.0 0.00 0.00 0.00 47 1012.1
20260508180018 65 281 3.0 14.0 0.00 0.00 0.00 47 1012.1
20260508175513 66 259 6.0 11.0 0.00 0.00 0.00 45 1012.1
20260508175011 66 254 4.0 12.0 0.00 0.00 0.00 45 1012.1
20260508174533 67 281 7.0 12.0 0.00 0.00 0.00 43 1012.2
20260508174013 68 267 6.0 15.0 0.00 0.00 0.00 42 1012.3
20260508173510 68 241 6.0 15.0 0.00 0.00 0.00 47 1012.4
20260508173023 69 277 7.0 14.0 0.00 0.00 0.00 43 1012.5
20260508172516 69 234 6.0 11.0 0.00 0.00 0.00 44 1012.5
20260508172012 69 228 5.0 11.0 0.00 0.00 0.00 44 1012.5
20260508171528 69 209 5.0 11.0 0.00 0.00 0.00 47 1012.6
20260508171010 69 170 5.0 11.0 0.00 0.00 0.00 45 1012.6
20260508170507 68 37 3.0 13.0 0.00 0.00 0.00 45 1012.7
20260508170032 68 248 5.0 13.0 0.00 0.00 0.00 48 1012.9
20260508165506 67 273 5.0 11.0 0.00 0.00 0.00 47 1013.0
20260508165011 67 300 3.0 9.0 0.00 0.00 0.00 49 1013.0
20260508164519 66 268 4.0 11.0 0.00 0.00 0.00 50 1013.1
20260508164006 65 265 3.0 11.0 0.00 0.00 0.00 51 1013.1
20260508163507 64 279 3.0 8.0 0.00 0.00 0.00 51 1013.3
20260508163038 64 273 3.0 9.0 0.00 0.00 0.00 1013.5
20260508162508 64 159 4.0 12.0 0.00 0.00 0.00 1013.5
20260508162013 64 178 5.0 12.0 0.00 0.00 0.00 1013.6
20260508161526 65 229 3.0 8.0 0.00 0.00 0.00 51 1013.7
20260508161012 64 155 3.0 8.0 0.00 0.00 0.00 51 1013.9
20260508160518 63 229 4.0 11.0 0.00 0.00 0.00 51 1013.9
20260508160027 63 236 3.0 12.0 0.00 0.00 0.00 52 1013.9
20260508155511 64 265 6.0 12.0 0.00 0.00 0.00 51 1013.9
20260508155012 64 208 6.0 9.0 0.00 0.00 0.00 50 1013.9
20260508154518 64 256 2.0 6.0 0.00 0.00 0.00 52 1014.0
20260508154011 64 190 2.0 10.0 0.00 0.00 0.00 50 1014.0
20260508153509 63 219 4.0 10.0 0.00 0.00 0.00 1013.9
20260508153028 63 207 3.0 11.0 0.00 0.00 0.00 54 1013.9
20260508152507 63 234 4.0 11.0 0.00 0.00 0.00 54 1013.9
20260508152010 62 234 3.0 9.0 0.00 0.00 0.00 52 1013.9
20260508151535 61 246 3.0 8.0 0.00 0.00 0.00 53 1013.9
20260508151008 61 149 2.0 7.0 0.00 0.00 0.00 53 1014.0
20260508150512 61 254 2.0 8.0 0.00 0.00 0.00 55 1014.1
20260508150030 61 219 3.0 12.0 0.00 0.00 0.00 52 1014.1
20260508145510 61 232 4.0 12.0 0.00 0.00 0.00 52 1014.1
20260508145009 61 246 5.0 11.0 0.00 0.00 0.00 52 1014.2
20260508144534 61 215 5.0 11.0 0.00 0.00 0.00 53 1014.1
20260508144011 61 286 5.0 9.0 0.00 0.00 0.00 53 1014.2
20260508143508 60 233 5.0 11.0 0.00 0.00 0.00 54 1014.3
20260508143020 60 269 5.0 12.0 0.00 0.00 0.00 53 1014.4
20260508142508 60 250 7.0 12.0 0.00 0.00 0.00 51 1014.5
20260508142013 60 248 5.0 11.0 0.00 0.00 0.00 54 1014.5
20260508141523 60 247 5.0 13.0 0.00 0.00 0.00 53 1014.6
20260508141010 60 274 6.0 13.0 0.00 0.00 0.00 52 1014.5
20260508140517 59 232 2.0 10.0 0.00 0.00 0.00 51 1014.5
20260508140030 59 273 3.0 11.0 0.00 0.00 0.00 54 1014.5
20260508135515 59 259 6.0 11.0 0.00 0.00 0.00 52 1014.6
20260508135016 59 280 3.0 8.0 0.00 0.00 0.00 53 1014.7
20260508134535 58 261 4.0 9.0 0.00 0.00 0.00 53 1014.6
20260508134009 58 294 3.0 9.0 0.00 0.00 0.00 55 1014.6
20260508133518 57 200 5.0 12.0 0.00 0.00 0.00 53 1014.5
20260508133030 57 235 4.0 12.0 0.00 0.00 0.00 55 1014.5
20260508132506 56 173 3.0 8.0 0.00 0.00 0.00 55 1014.5
20260508132011 56 194 3.0 10.0 0.00 0.00 0.00 57 1014.5
20260508131524 56 284 2.0 10.0 0.00 0.00 0.00 56 1014.4
20260508131008 55 225 2.0 6.0 0.00 0.00 0.00 57 1014.4
20260508130508 55 236 3.0 6.0 0.00 0.00 0.00 56 1014.4
20260508130025 55 254 2.0 10.0 0.00 0.00 0.00 57 1014.4
20260508125509 55 246 3.0 10.0 0.00 0.00 0.00 56 1014.4
20260508125008 55 278 5.0 9.0 0.00 0.00 0.00 57 1014.4
20260508124528 54 290 2.0 7.0 0.00 0.00 0.00 60 1014.5
20260508124011 53 242 2.0 7.0 0.00 0.00 0.00 60 1014.4
20260508123514 53 181 2.0 4.0 0.00 0.00 0.00 61 1014.5
20260508123035 52 221 0.0 6.0 0.00 0.00 0.00 62 1014.4
20260508122511 52 153 1.0 6.0 0.00 0.00 0.00 61 1014.4
20260508122016 52 192 2.0 6.0 0.00 0.00 0.00 63 1014.5
20260508121530 51 180 2.0 5.0 0.00 0.00 0.00 65 1014.5
20260508121003 51 238 1.0 4.0 0.00 0.00 0.00 65 1014.5
20260508120503 50 153 1.0 5.0 0.00 0.00 0.00 65 1014.4
20260508120005 50 150 1.0 5.0 0.00 0.00 0.00 66 1014.3
20260508115505 49 267 1.0 5.0 0.00 0.00 0.00 66 1014.3
20260508115003 49 225 1.0 5.0 0.00 0.00 0.00 67 1014.2
20260508114509 48 175 2.0 6.0 0.00 0.00 0.00 68 1014.1
20260508114004 48 232 2.0 6.0 0.00 0.00 0.00 68 1014.2
20260508113505 47 221 1.0 6.0 0.00 0.00 0.00 69 1014.2
20260508113014 47 155 1.0 5.0 0.00 0.00 0.00 70 1014.1
20260508112505 46 157 2.0 5.0 0.00 0.00 0.00 70 1014.0
20260508112006 46 171 1.0 5.0 0.00 0.00 0.00 70 1014.1
20260508111503 46 175 1.0 4.0 0.00 0.00 0.00 70 1014.0
20260508111003 45 239 1.0 4.0 0.00 0.00 0.00 70 1014.0
20260508110503 45 170 0.0 4.0 0.00 0.00 0.00 70 1013.9
20260508110004 45 197 2.0 4.0 0.00 0.00 0.00 70 1014.0
20260508105503 45 165 2.0 4.0 0.00 0.00 0.00 70 1013.9
20260508105004 45 142 2.0 5.0 0.00 0.00 0.00 70 1013.9
20260508104505 45 182 1.0 5.0 0.00 0.00 0.00 71 1013.9
20260508104003 45 176 1.0 4.0 0.00 0.00 0.00 71 1013.9
20260508103504 45 175 1.0 4.0 0.00 0.00 0.00 71 1013.9
20260508103012 44 225 1.0 5.0 0.00 0.00 0.00 71 1013.9
20260508102504 44 147 1.0 5.0 0.00 0.00 0.00 71 1013.8
20260508102006 44 163 0.0 5.0 0.00 0.00 0.00 71 1013.7
20260508101529 44 188 1.0 4.0 0.00 0.00 0.00 71 1013.7
20260508101007 44 185 1.0 4.0 0.00 0.00 0.00 71 1013.8
20260508100506 44 171 0.0 3.0 0.00 0.00 0.00 71 1013.8
20260508100005 44 171 1.0 4.0 0.00 0.00 0.00 71 1013.8
20260508095503 44 167 1.0 4.0 0.00 0.00 0.00 71 1013.8
20260508095003 44 193 0.0 5.0 0.00 0.00 0.00 71 1013.8
20260508094503 44 182 1.0 5.0 0.00 0.00 0.00 71 1013.8
20260508094003 44 142 0.0 3.0 0.00 0.00 0.00 71 1013.9
20260508093504 44 188 0.0 2.0 0.00 0.00 0.00 71 1014.0
20260508093015 44 177 0.0 4.0 0.00 0.00 0.00 70 1013.9
20260508092506 44 232 1.0 4.0 0.00 0.00 0.00 70 1013.9
20260508092004 44 261 1.0 4.0 0.00 0.00 0.00 70 1013.7
20260508091516 44 191 1.0 4.0 0.00 0.00 0.00 70 1013.8
20260508091009 44 192 1.0 2.0 0.00 0.00 0.00 70 1013.9
20260508090505 44 169 0.0 3.0 0.00 0.00 0.00 70 1013.9
20260508090028 44 174 1.0 3.0 0.00 0.00 0.00 70 1013.9
20260508085506 44 173 1.0 3.0 0.00 0.00 0.00 69 1013.9
20260508085002 44 197 1.0 2.0 0.00 0.00 0.00 69 1013.9
20260508084504 44 169 0.0 2.0 0.00 0.00 0.00 69 1013.9
20260508084003 45 192 0.0 2.0 0.00 0.00 0.00 69 1013.9
20260508083502 45 198 0.0 2.0 0.00 0.00 0.00 69 1014.0
20260508083004 44 252 0.0 4.0 0.00 0.00 0.00 69 1014.0
20260508082502 45 285 0.0 4.0 0.00 0.00 0.00 68 1013.9
20260508082007 45 246 1.0 3.0 0.00 0.00 0.00 68 1013.9
20260508081511 45 246 0.0 2.0 0.00 0.00 0.00 69 1013.9
20260508081002 45 249 0.0 2.0 0.00 0.00 0.00 69 1013.9
20260508080513 45 179 0.0 2.0 0.00 0.00 0.00 68 1013.8
20260508080023 46 149 0.0 2.0 0.00 0.00 0.00 68 1013.8
20260508075508 46 111 0.0 2.0 0.00 0.00 0.00 67 1013.8
20260508075008 46 143 0.0 2.0 0.00 0.00 0.00 67 1013.8
20260508074523 46 166 1.0 2.0 0.00 0.00 0.00 67 1013.8
20260508074007 46 193 0.0 2.0 0.00 0.00 0.00 66 1013.8
20260508073505 46 139 0.0 2.0 0.00 0.00 0.00 66 1013.8
20260508073005 46 259 0.0 5.0 0.00 0.00 0.00 66 1013.9
20260508072502 46 291 1.0 5.0 0.00 0.00 0.00 66 1013.9
20260508072003 46 246 1.0 3.0 0.00 0.00 0.00 66 1013.9
20260508071508 46 313 1.0 3.0 0.00 0.00 0.00 66 1014.0
20260508071002 46 263 0.0 4.0 0.00 0.00 0.00 66 1013.9
20260508070502 46 228 0.0 4.0 0.00 0.00 0.00 65 1014.0
20260508070012 46 186 1.0 7.0 0.00 0.00 0.00 65 1014.0
20260508065502 46 261 1.0 7.0 0.00 0.00 0.00 65 1014.1
20260508065003 46 266 1.0 6.0 0.00 0.00 0.00 66 1014.2
20260508064514 46 207 1.0 6.0 0.00 0.00 0.00 66 1014.1
20260508064007 46 239 1.0 4.0 0.00 0.00 0.00 66 1014.2
20260508063512 46 28 1.0 4.0 0.00 0.00 0.00 66 1014.2
20260508063024 46 270 1.0 4.0 0.00 0.00 0.00 66 1014.2
20260508062502 46 200 0.0 3.0 0.00 0.00 0.00 67 1014.2
20260508062003 47 169 0.0 3.0 0.00 0.00 0.00 66 1014.1
20260508061506 47 169 0.0 2.0 0.00 0.00 0.00 66 1014.1
20260508061006 47 360 0.0 2.0 0.00 0.00 0.00 66 1014.2
20260508060503 48 205 0.0 6.0 0.00 0.00 0.00 67 1014.2
20260508060010 48 236 0.0 6.0 0.00 0.00 0.00 64 1014.2
20260508055503 48 211 0.0 5.0 0.00 0.00 0.00 63 1014.2
20260508055006 48 143 1.0 4.0 0.00 0.00 0.00 63 1014.3
20260508054514 48 182 1.0 5.0 0.00 0.00 0.00 62 1014.2
20260508054003 48 144 1.0 5.0 0.00 0.00 0.00 61 1014.3
20260508053506 48 200 2.0 5.0 0.00 0.00 0.00 60 1014.2
20260508053020 48 147 2.0 4.0 0.00 0.00 0.00 60 1014.2
20260508052508 49 196 2.0 7.0 0.00 0.00 0.00 60 1014.3
20260508052008 49 163 2.0 7.0 0.00 0.00 0.00 60 1014.3
20260508051524 49 167 1.0 5.0 0.00 0.00 0.00 61 1014.4
20260508051003 49 191 1.0 8.0 0.00 0.00 0.00 61 1014.4
20260508050503 49 153 2.0 8.0 0.00 0.00 0.00 61 1014.3
20260508050006 48 165 2.0 7.0 0.00 0.00 0.00 62 1014.3
20260508045503 48 238 2.0 7.0 0.00 0.00 0.00 62 1014.3
20260508045004 48 195 1.0 5.0 0.00 0.00 0.00 62 1014.4
20260508044514 48 188 1.0 5.0 0.00 0.00 0.00 62 1014.4
20260508044004 48 191 1.0 4.0 0.00 0.00 0.00 63 1014.4
20260508043505 48 179 1.0 4.0 0.00 0.00 0.00 63 1014.3
20260508043017 48 156 0.0 4.0 0.00 0.00 0.00 62 1014.4
20260508042507 49 200 1.0 4.0 0.00 0.00 0.00 62 1014.4
20260508042006 49 182 1.0 3.0 0.00 0.00 0.00 62 1014.4
20260508041530 49 178 1.0 4.0 0.00 0.00 0.00 61 1014.4
20260508041009 49 221 1.0 4.0 0.00 0.00 0.00 61 1014.4
20260508040516 49 163 1.0 5.0 0.00 0.00 0.00 61 1014.3
20260508040009 49 174 1.0 5.0 0.00 0.00 0.00 61 1014.3
20260508035504 48 185 1.0 5.0 0.00 0.00 0.00 61 1014.3
20260508035004 48 161 1.0 5.0 0.00 0.00 0.00 61 1014.3
20260508034515 48 191 2.0 5.0 0.00 0.00 0.00 61 1014.2
20260508034004 48 194 1.0 6.0 0.00 0.00 0.00 61 1014.3
20260508033504 48 188 2.0 6.0 0.00 0.00 0.00 61 1014.3
20260508033019 48 159 2.0 5.0 0.00 0.00 0.00 62 1014.3
20260508032510 48 155 1.0 3.0 0.00 0.00 0.00 63 1014.3
20260508032008 48 180 0.0 4.0 0.00 0.00 0.00 62 1014.3
20260508031519 48 201 0.0 4.0 0.00 0.00 0.00 62 1014.4
20260508031010 48 168 1.0 4.0 0.00 0.00 0.00 63 1014.2
20260508030507 47 170 1.0 4.0 0.00 0.00 0.00 63 1014.2
20260508030034 47 168 1.0 4.0 0.00 0.00 0.00 64 1014.3
20260508025511 47 164 1.0 4.0 0.00 0.00 0.00 67 1014.2
20260508025009 46 158 1.0 4.0 0.00 0.00 0.00 68 1014.2
20260508024505 46 162 1.0 2.0 0.00 0.00 0.00 71 1014.1
20260508024004 46 163 1.0 2.0 0.00 0.00 0.00 72 1014.1
20260508023504 46 159 1.0 2.0 0.00 0.00 0.00 73 1014.2
20260508023021 46 161 1.0 1.0 0.00 0.00 0.00 75 1014.1
20260508022504 46 148 0.0 2.0 0.00 0.00 0.00 74 1014.2
20260508022004 46 148 0.0 2.0 0.00 0.00 0.00 74 1014.2
20260508021517 46 148 1.0 2.0 0.00 0.00 0.00 74 1014.2
20260508021004 46 142 0.0 2.0 0.00 0.00 0.00 74 1014.2
20260508020510 46 135 0.0 2.0 0.00 0.00 0.00 74 1014.2
20260508020021 46 163 0.0 2.0 0.00 0.00 0.00 76 1014.2
20260508015507 46 188 0.0 0.0 0.00 0.00 0.00 77 1014.3
20260508015009 46 232 0.0 0.0 0.00 0.00 0.00 77 1014.3
20260508014532 46 232 0.0 0.0 0.00 0.00 0.00 76 1014.4
20260508014010 47 232 0.0 0.0 0.00 0.00 0.00 75 1014.4
20260508013503 47 232 0.0 0.0 0.00 0.00 0.00 73 1014.3
20260508013009 47 232 0.0 0.0 0.00 0.00 0.00 72 1014.4
20260508012504 48 232 0.0 0.0 0.00 0.00 0.00 70 1014.3
20260508012004 48 232 0.0 0.0 0.00 0.00 0.00 69 1014.2
20260508011516 49 232 0.0 0.0 0.00 0.00 0.00 68 1014.2
20260508011005 49 232 0.0 0.0 0.00 0.00 0.00 67 1014.3
20260508010504 50 232 0.0 0.0 0.00 0.00 0.00 65 1014.3
20260508010035 51 232 0.0 0.0 0.00 0.00 0.00 64 1014.3
20260508005507 51 232 0.0 0.0 0.00 0.00 0.00 64 1014.3
20260508005013 52 232 0.0 2.0 0.00 0.00 0.00 63 1014.3
20260508004532 53 255 0.0 2.0 0.00 0.00 0.00 62 1014.3
20260508004010 53 275 0.0 2.0 0.00 0.00 0.00 60 1014.2
20260508003517 54 285 0.0 2.0 0.00 0.00 0.00 56 1014.2
20260508003028 54 285 0.0 2.0 0.00 0.00 0.00 51 1014.2
20260508002510 55 285 0.0 1.0 0.00 0.00 0.00 50 1014.1
20260508002006 55 285 0.0 2.0 0.00 0.00 0.00 50 1014.1
20260508001523 55 285 0.0 3.0 0.00 0.00 0.00 46 1014.1
20260508001004 55 266 0.0 4.0 0.00 0.00 0.00 45 1013.9
20260508000505 56 273 1.0 4.0 0.00 0.00 0.00 44 1013.9
20260508000021 56 251 1.0 4.0 0.00 0.00 0.00 42 1013.8
20260507235507 56 281 1.0 4.0 0.00 0.00 0.00 43 1013.7
20260507235005 56 256 1.0 6.0 0.00 0.00 0.00 42 1013.8
20260507234520 57 279 2.0 5.0 0.00 0.00 0.00 41 1013.7
20260507234007 57 271 2.0 7.0 0.00 0.00 0.00 41 1013.7
20260507233509 58 284 2.0 7.0 0.00 0.00 0.00 39 1013.7
20260507233028 59 245 3.0 4.0 0.00 0.00 0.00 39 1013.8
20260507232507 59 291 2.0 4.0 0.00 0.00 0.00 38 1013.7
20260507232017 59 284 1.0 3.0 0.00 0.00 0.00 38 1013.8
20260507231527 59 317 1.0 3.0 0.00 0.00 0.00 38 1013.7
20260507231004 59 309 1.0 5.0 0.00 0.00 0.00 39 1013.8
20260507230505 59 283 3.0 5.0 0.00 0.00 0.00 39 1013.7
20260507230014 59 257 1.0 4.0 0.00 0.00 0.00 39 1013.7
20260507225505 59 244 0.0 4.0 0.00 0.00 0.00 39 1013.7
20260507225005 59 299 1.0 7.0 0.00 0.00 0.00 38 1013.7
20260507224528 59 282 3.0 7.0 0.00 0.00 0.00 39 1013.6
20260507224004 60 298 3.0 7.0 0.00 0.00 0.00 38 1013.6
20260507223507 60 280 2.0 4.0 0.00 0.00 0.00 38 1013.7
20260507223025 60 246 1.0 8.0 0.00 0.00 0.00 38 1013.8
20260507222509 60 263 4.0 8.0 0.00 0.00 0.00 38 1013.8
20260507222011 60 275 2.0 11.0 0.00 0.00 0.00 38 1013.9
20260507221534 60 279 2.0 11.0 0.00 0.00 0.00 38 1014.0
20260507221010 60 323 3.0 10.0 0.00 0.00 0.00 39 1014.0
20260507220514 60 298 5.0 9.0 0.00 0.00 0.00 39 1014.0
20260507220032 61 249 3.0 8.0 0.00 0.00 0.00 39 1014.1
20260507215507 61 279 1.0 7.0 0.00 0.00 0.00 39 1014.1
20260507215004 61 306 1.0 10.0 0.00 0.00 0.00 38 1014.0
20260507214521 61 284 2.0 10.0 0.00 0.00 0.00 39 1014.1
20260507214005 61 249 2.0 9.0 0.00 0.00 0.00 41 1014.1
20260507213509 60 349 2.0 6.0 0.00 0.00 0.00 42 1014.1
20260507213030 59 225 1.0 6.0 0.00 0.00 0.00 43 1014.1
20260507212506 59 312 1.0 7.0 0.00 0.00 0.00 42 1014.2
20260507212011 59 45 1.0 7.0 0.00 0.00 0.00 39 1014.1
20260507211527 60 291 2.0 7.0 0.00 0.00 0.00 39 1014.1
20260507211010 60 242 1.0 8.0 0.00 0.00 0.00 1014.1
20260507210512 61 291 2.0 11.0 0.00 0.00 0.00 40 1014.1
20260507210051 61 275 2.0 11.0 0.00 0.00 0.00 40 1014.1
20260507205513 60 344 4.0 14.0 0.00 0.00 0.00 39 1014.0
20260507205004 61 338 2.0 14.0 0.00 0.00 0.00 41 1014.0
20260507204515 60 261 3.0 10.0 0.00 0.00 0.00 40 1014.0
20260507204004 60 130 2.0 10.0 0.00 0.00 0.00 39 1014.2
20260507203511 60 271 3.0 10.0 0.00 0.00 0.00 40 1014.2
20260507203023 60 298 4.0 11.0 0.00 0.00 0.00 40 1014.1
20260507202506 60 287 4.0 11.0 0.00 0.00 0.00 40 1014.1
20260507202009 60 352 2.0 8.0 0.00 0.00 0.00 42 1014.0
20260507201529 60 286 2.0 8.0 0.00 0.00 0.00 38 1014.0
20260507201011 60 323 3.0 9.0 0.00 0.00 0.00 39 1014.1
20260507200512 59 269 2.0 13.0 0.00 0.00 0.00 42 1014.1
20260507200047 59 281 6.0 13.0 0.00 0.00 0.00 40 1014.0
20260507195507 59 311 2.0 11.0 0.00 0.00 0.00 40 1014.2
20260507195012 59 257 3.0 11.0 0.00 0.00 0.00 42 1014.4
20260507194532 60 292 2.0 11.0 0.00 0.00 0.00 42 1014.4
20260507194003 60 337 3.0 11.0 0.00 0.00 0.00 1014.4
20260507193505 60 340 2.0 10.0 0.00 0.00 0.00 42 1014.3
20260507193026 60 318 3.0 12.0 0.00 0.00 0.00 42 1014.2
20260507192507 60 31 3.0 13.0 0.00 0.00 0.00 42 1014.3
20260507192009 59 5 5.0 13.0 0.00 0.00 0.00 41 1014.3
20260507191528 59 32 4.0 15.0 0.00 0.00 0.00 41 1014.5
20260507191008 59 321 5.0 15.0 0.00 0.00 0.00 42 1014.5